Flag for U.S.A. Weather past 2 weeks in Stillwater, Minnesota, U.S.A.

Now
36 °F

Fog.


Feels Like: 28 °F
Forecast: 33 / 37 °F
Wind: 10 mph from Southeast

Location: St. Paul Downtown Holman Field

Current Time: Dec 21, 2014 at 7:40:06 PM

Latest Report: Dec 21, 2014 at 6:53 PM


Visibility: 3 mi

Pressure: 29.78 "Hg

Humidity: 100%

Dew point: 36 °F

Location of StillwaterLocation

Historic Weather in Stillwater — Graph

°F

Stillwater temperature yesterday

Maximum temperature yesterday: 32 °F (at 11:53 AM)
Minimum temperature yesterday: 29 °F (at 12:53 AM)
Average temperature yesterday: 31 °F

Past Weeks' High & Low Weather Summary

 TemperatureHumidityPressure
High48 °F (Dec 14, 2:53 PM)100% (Dec 8, 12:53 AM)30.66 "Hg (Dec 8, 12:53 AM)
Low11 °F (Dec 17, 6:53 AM)68% (Dec 17, 1:53 PM)29.69 "Hg (Dec 15, 1:53 PM)
Average30 °F87%30.19 "Hg
* Reported Dec 6 5:53 PM — Dec 21 5:53 PM, Stillwater, Weather by CustomWeather, © 2014

Note: Actual official high and low records may vary slightly from our data, if they occured in-between our weather recording intervals... More about our weather records

Advertising

Stillwater weather history for previous 24 hours

 ConditionsComfort  
Time TempWeatherWind HumidityBarometerVisibility
5:53 PM
Dec 21
36 °FFog.10 mph97%29.77 "Hg2 mi
4:53 PM36 °FFog.12 mph97%29.78 "Hg3 mi
4:00 PM36 °FLight rain. Fog.12 mph97%29.76 "Hg2 mi
2:53 PM36 °FLight rain. Fog.12 mph97%29.78 "Hg2 mi
1:53 PM35 °FLight rain. Fog.12 mph96%29.80 "Hg5 mi
12:53 PM34 °FLight rain. Fog.10 mph97%29.82 "Hg2 mi
11:53 AM33 °FLight snow. Fog.6 mph96%29.86 "Hg2 mi
10:53 AM33 °FLight snow. Fog.10 mph100%29.89 "Hg2 mi
9:53 AM34 °FFog.13 mph97%29.90 "Hg2 mi
8:53 AM33 °FLight rain. Fog.15 mph100%29.91 "Hg2 mi
7:53 AM33 °FFog.15 mph96%29.93 "Hg2 mi
6:53 AM33 °FFog.13 mph92%29.95 "Hg4 mi
5:53 AM32 °FIce fog.12 mph92%29.97 "Hg5 mi
4:53 AM32 °FIce fog.10 mph92%29.99 "Hg6 mi
3:53 AM32 °FIce fog.8 mph92%30.02 "Hg6 mi
2:53 AM32 °FOvercast.8 mph88%30.06 "Hg8 mi
2:03 AM32 °FOvercast.7 mph85%30.06 "Hg10 mi
1:53 AM32 °FOvercast.9 mph85%30.08 "Hg10 mi
12:53 AM32 °FOvercast.9 mph85%30.10 "Hg10 mi
11:53 PM
Dec 20
31 °FOvercast.8 mph85%30.11 "Hg10 mi
10:53 PM31 °FOvercast.9 mph85%30.12 "Hg10 mi
9:53 PM31 °FOvercast.10 mph85%30.14 "Hg10 mi
8:53 PM31 °FOvercast.16 mph85%30.13 "Hg10 mi
7:53 PM32 °FOvercast.12 mph82%30.14 "Hg10 mi
Weather by CustomWeather, © 2014

See weather overviewHow to use our weather pages